WetterOnline ( http://www.wetteronline.ch )

Wetter aktuell Offenburg

Aktuelles Wetter: Lahr (156m)

6-stündlich | Neueste Meldungen
Ortszeit Temperatur Wetter
Do, 21.02. 1:00 2.1° C leicht bewölkt
Mi, 20.02. 19:00 8.0° C leicht bewölkt
Mi, 20.02. 13:00 11.3° C bedeckt
Mi, 20.02. 7:00 3.6° C bedeckt
Mi, 20.02. 1:00 3.6° C wolkig
Di, 19.02. 19:00 7.6° C bewölkt
Di, 19.02. 13:00 11.0° C bedeckt
Di, 19.02. 7:00 5.0° C wolkig
Ortszeit Temperatur Wetter
Do, 21.02. 2:00 2.8° C wolkenlos
Do, 21.02. 1:50 2.8° C wolkenlos
Do, 21.02. 1:40 2.3° C wolkenlos
Do, 21.02. 1:30 2.3° C fast wolkenlos
Do, 21.02. 1:20 2.3° C fast wolkenlos
Do, 21.02. 1:10 2.7° C fast wolkenlos
Do, 21.02. 1:00 2.1° C leicht bewölkt
Do, 21.02. 0:30 3.0° C bedeckt
Do, 21.02. 0:00 3.1° C bedeckt
Mi, 20.02. 23:30 3.5° C wolkig
Mi, 20.02. 23:00 3.4° C leicht bewölkt
Ortszeit Relative Feuchte Sichtweite
Do, 21.02. 1:00 94% 8 km
Mi, 20.02. 19:00 81% 12 km
Mi, 20.02. 13:00 64% 12 km
Mi, 20.02. 7:00 98% 2.5 km
Mi, 20.02. 1:00 99% 3.4 km
Di, 19.02. 19:00 82% 10 km
Di, 19.02. 13:00 61% 30 km
Di, 19.02. 7:00 75% 30 km
Ortszeit Relative Feuchte Sichtweite
Do, 21.02. 2:00 96% 8 km
Do, 21.02. 1:50 96% -
Do, 21.02. 1:40 96% -
Do, 21.02. 1:30 96% 10 km
Do, 21.02. 1:20 96% -
Do, 21.02. 1:10 96% -
Do, 21.02. 1:00 94% 8 km
Do, 21.02. 0:30 94% 7 km
Do, 21.02. 0:00 97% 3.4 km
Mi, 20.02. 23:30 97% 5.0 km
Mi, 20.02. 23:00 98% 5.0 km
Ortszeit Niederschlagsmenge Niederschlagsart
Do, 21.02. 1:00 0.0 l/m2 in 6 Std. -
Mi, 20.02. 19:00 0.0 l/m2 in 12 Std. -
Mi, 20.02. 13:00 0.0 l/m2 in 6 Std. -
Mi, 20.02. 7:00 0.0 l/m2 in 12 Std. -
Mi, 20.02. 1:00 0.0 l/m2 in 6 Std. -
Di, 19.02. 19:00 0.1 l/m2 in 12 Std. Regen
Di, 19.02. 13:00 0.0 l/m2 in 6 Std. -
Di, 19.02. 7:00 0.0 l/m2 in 12 Std. -
Ortszeit Niederschlagsmenge Niederschlagsart
Do, 21.02. 2:00 0.0 l/m2 in 1 Std. -
Do, 21.02. 1:50 keine Meldung -
Do, 21.02. 1:40 keine Meldung -
Do, 21.02. 1:30 0.0 l/m2 in 1 Std. -
Do, 21.02. 1:20 keine Meldung -
Do, 21.02. 1:10 keine Meldung -
Do, 21.02. 1:00 0.0 l/m2 in 1 Std. -
Do, 21.02. 0:30 0.0 l/m2 in 1 Std. -
Do, 21.02. 0:00 0.0 l/m2 in 1 Std. -
Mi, 20.02. 23:30 0.0 l/m2 in 1 Std. -
Mi, 20.02. 23:00 0.0 l/m2 in 1 Std. -
Ortszeit Stärke Spitze Richtung
km/h Bft. km/h Grad Sektor
Do, 21.02. 1:00 4 1 7 220° SW
Mi, 20.02. 19:00 7 2 11 70° O
Mi, 20.02. 13:00 7 2 14 220° SW
Mi, 20.02. 7:00 7 2 11 280° W
Mi, 20.02. 1:00 4 1 11 70° O
Di, 19.02. 19:00 7 2 18 70° O
Di, 19.02. 13:00 7 2 22 220° SW
Di, 19.02. 7:00 11 2 18 180° S
Ortszeit Stärke Spitze Richtung
km/h Bft. km/h Grad Sektor
Do, 21.02. 2:00 2 1 7 210° SW
Do, 21.02. 1:50 2 1 - 210° SW
Do, 21.02. 1:40 2 1 - 80° O
Do, 21.02. 1:30 4 1 7 170° S
Do, 21.02. 1:20 4 1 - 170° S
Do, 21.02. 1:10 6 1 - 190° S
Do, 21.02. 1:00 4 1 7 220° SW
Do, 21.02. 0:30 4 1 4 260° W
Do, 21.02. 0:00 2 1 4 360° N
Mi, 20.02. 23:30 2 1 4 10° N
Mi, 20.02. 23:00 0 0 4 - -
Ortszeit Untergrenze Bedeckung Gattung
total tief tief mittel hoch
Do, 21.02. 1:00 4200 m 3/8 2/8 - - -
Mi, 20.02. 19:00 4200 m 6/8 1/8 - - -
Mi, 20.02. 13:00 1320 m 8/8 8/8 - - -
Mi, 20.02. 7:00 1350 m 8/8 8/8 - - -
Mi, 20.02. 1:00 10500 m 8/8 0/8 - - -
Di, 19.02. 19:00 1440 m 7/8 7/8 - - -
Di, 19.02. 13:00 1200 m 8/8 8/8 - - -
Di, 19.02. 7:00 1800 m 8/8 1/8 - - -
Ortszeit Bedeckungsgrad in Achtel und Wolkenuntergrenze
Do, 21.02. 2:00 keine Wolken
Do, 21.02. 1:50 keine Wolken
Do, 21.02. 1:40 keine Wolken
Do, 21.02. 1:30 1(10500m)
Do, 21.02. 1:20 1(10500m)
Do, 21.02. 1:10 2(10500m)
Do, 21.02. 1:00 2(4200m) 3(10500m)
Do, 21.02. 0:30 8(4200m)
Do, 21.02. 0:00 8(4200m)
Mi, 20.02. 23:30 5(4200m) 6(12000m)
Mi, 20.02. 23:00 4(12000m) 5(12000m)
Ortszeit Luftdruck NN (hPa) Tendenz (hPa in 3 Std.)
Do, 21.02. 1:00 1028 + 0,8
Mi, 20.02. 19:00 1026 + 0,3
Mi, 20.02. 13:00 1026 + 0,4
Mi, 20.02. 7:00 1025 + 0,7
Mi, 20.02. 1:00 1024 + 0,3
Di, 19.02. 19:00 1023 + 0,8
Di, 19.02. 13:00 1023 + 0,5
Di, 19.02. 7:00 1021 0,0
Ortszeit Luftdruck NN (hPa) Tendenz (hPa in 3 Std.)
Do, 21.02. 2:00 1028 + 0,9
Do, 21.02. 1:50 1028 keine Meldung
Do, 21.02. 1:40 1028 keine Meldung
Do, 21.02. 1:30 1028 + 0,8
Do, 21.02. 1:20 1028 keine Meldung
Do, 21.02. 1:10 1028 keine Meldung
Do, 21.02. 1:00 1028 + 0,8
Do, 21.02. 0:30 1028 + 0,7
Do, 21.02. 0:00 1028 + 0,7
Mi, 20.02. 23:30 1028 + 0,8
Mi, 20.02. 23:00 1027 + 0,8
Ortszeit Schneehöhe (cm)
Do, 21.02. 1:00 0
Mi, 20.02. 19:00 0
Mi, 20.02. 13:00 0
Mi, 20.02. 7:00 0
Mi, 20.02. 1:00 0
Di, 19.02. 19:00 0
Di, 19.02. 13:00 0
Di, 19.02. 7:00 0
Ortszeit Schneehöhe (cm)
Do, 21.02. 2:00 0
Do, 21.02. 1:50 0
Do, 21.02. 1:40 0
Do, 21.02. 1:30 0
Do, 21.02. 1:20 0
Do, 21.02. 1:10 0
Do, 21.02. 1:00 0
Do, 21.02. 0:30 0
Do, 21.02. 0:00 0
Mi, 20.02. 23:30 0
Mi, 20.02. 23:00 0
Link zu dieser Seite / Seite empfehlen

Das Wetter in ...